Location: *
(50.2903°S, 172.5375°W)
Time: 01:00:21
(UTC+00:00)

Resurs 1-4 Rocket - Pass Details

Date: 28 February 2020
Orbit: 800 x 814 km, 98.6° (Epoch: 01 April)

Event Time Altitude Azimuth Distance (km) Brightness Sun altitude
Exits shadow 13:21:44 21° 243° (WSW) 1,753 3.8 -27.8°
Drops below altitude 10° 13:24:22 10° 217° (SW) 2,418 4.8 -27.6°
Sets 13:27:09 0° 204° (SSW) 3,355 5.8 -27.4°
